Showing default

YAOGAN-32 B, 43643

Orbit data source: Space-Track

YAOGAN-32 B, 43643 is a payload satellite owned by PLA SSF (CN) in SSO that was launched on Tue, 09 Oct 2018 UTC via a CHANG ZHENG 2C/YZ-1S launch vehicle from the Jiuquan Satellite Launch Center, China (JSC). Payload-class satellites include a variety of spacecraft equipped with specific instruments for various scientific and technological missions. These include communications satellites like Starlink; space stations such as the ISS; scientific satellites like the Hubble; Earth observation satellites from companies like Planet Labs, Umbra, and HawkEye 360; GPS; miniature CubeSats for education and research; and military/defense satellites.

Loading next visibility...
Identifier
43643, 2018-077B
Orbit
SSO
Country
Flag of CNCN / PRC
Related business
Manufacturer
SECM?
Mission
Operational Defense Sigint
Bus & Motor
Unknown
Mass
~500 kg wet, ~500 kg dry
Launch date (UTC)
2018-10-09 (8 years ago)
Launch vehicle
CHANG ZHENG 2C/YZ-1S
Launch site
Jiuquan Satellite Launch Center, China (JSC)
Object type
Payload
Rocket body
Debris
Shape & HBR
Box + 2 Pan, 0.5 m
Radar Cross Section
0.446 m², Large (>1 m²)

Expand to show TLE details & history
Last TLE update: 4 hours ago

TLE from 4 hours ago
0 YAOGAN-32 B
1 43643U 18077B   26125.17650029  .00000580  00000-0  12208-3 0  9998
2 43643  98.1506 154.1868 0005954   9.1535 350.9774 14.63118605403546
Epoch: 2026-05-05T04:14Z
TLE epoch observation values (Epoch: 2026-05-05T04:14:09.625Z)
Latitude
-0.00004°
Longitude
-132.4084°
Altitude
681.96 km
Speed
7.518 km/s
True Right ascension
10h 16m 44s
True Declination
0° 00' 00"
Sunlit
Object was in daylight at epoch
Visualization orbit readout
Latitude
Unknown
Longitude
Unknown
Altitude
Unknown
Speed
Unknown
Apparent Right ascension
Unknown
Apparent Declination
Unknown
Sunlit
N/A
Visualization observer readout
Local Sidereal Time
16:35:44
Azimuth
Unknown
Elevation
Unknown
Doppler factor
Unknown
Orbital elements
Apogee altitude
684.399 km
Perigee altitude
675.994 km
Semi-major axis
7,058.334 km
Eccentricity
0.0006
Inclination
98.1506°
RAAN
154.1868°
Arg. of periapsis
9.1535°
True anomaly
350.96669°
Mean anomaly
350.9774°
Eccentric anomaly
350.97205°
Mean motion
3.66007 °/min
Orbital period
98.36 mins
BSTAR
0.00012208
Loading maneuver chart data...
Computing Atmospheric mass density...
Loading historical data...
Loading historical data...
Loading historical data...
Loading historical data...
Loading historical data...
Loading historical data...
Loading historical data...
Other satellites on launch #77 in the year 2018 (2018-10-09 UTC)

Documentation

Showing up to 5 results
|